KB3KBR-WX Weather Reports


Display with metric or nautical units.
time (UTC)temp
F
wind
direction
speed
MPH
gust
MPH
rain 1hr
in
rain 24hr
in
rain mn
in
humidity
%
barometer
mb
20260509201610 66 177 4.0 14.0 0.00 0.72 0.42 61 1003.6
20260509201110 66 172 3.0 12.0 0.00 0.72 0.42 63 1003.6
20260509200610 65 157 4.0 15.0 0.00 0.72 0.42 64 1003.6
20260509200110 66 169 4.0 15.0 0.00 0.72 0.42 62 1003.6
20260509195540 64 177 4.0 12.0 0.00 0.72 0.42 67 1003.8
20260509195010 64 162 4.0 12.0 0.00 0.73 0.42 66 1003.8
20260509194443 64 188 2.0 8.0 0.00 0.76 0.42 67 1003.7
20260509192840 62 160 6.0 14.0 0.00 0.76 0.42 70 1004.0
20260509192310 63 171 5.0 14.0 0.00 0.76 0.42 69 1003.9
20260509191740 63 168 5.0 12.0 0.00 0.76 0.42 73 1004.1
20260509191240 62 173 4.0 12.0 0.00 0.76 0.42 73 1004.3
20260509190710 62 178 4.0 12.0 0.00 0.76 0.42 74 1004.3
20260509185110 61 162 4.0 10.0 0.00 0.76 0.42 77 1004.3
20260509184609 60 158 4.0 10.0 0.00 0.76 0.42 79 1004.3
20260509184110 60 166 3.0 8.0 0.00 0.76 0.42 78 1004.4
20260509183540 60 192 3.0 10.0 0.00 0.76 0.42 80 1004.4
20260509182439 60 163 3.0 8.0 0.00 0.76 0.42 79 1004.3
20260509181939 60 175 3.0 8.0 0.00 0.76 0.42 81 1004.4
20260509181410 59 186 3.0 8.0 0.00 0.76 0.42 81 1004.4
20260509180909 59 174 3.0 15.0 0.00 0.76 0.42 82 1004.4
20260509180409 59 174 3.0 15.0 0.00 0.76 0.42 83 1004.6
20260509175839 58 181 3.0 10.0 0.00 0.76 0.42 86 1004.5
20260509175310 58 172 4.0 10.0 0.00 0.76 0.42 85 1004.5
20260509174809 58 169 4.0 9.0 0.00 0.76 0.42 88 1004.5
20260509174239 57 184 4.0 9.0 0.00 0.76 0.42 88 1004.6
20260509173711 56 183 2.0 7.0 0.00 0.76 0.42 90 1004.8
20260509173209 56 188 3.0 7.0 0.00 0.76 0.42 91 1004.8
20260509172640 55 193 2.0 7.0 0.00 0.76 0.42 91 1004.9
20260509172109 55 182 3.0 8.0 0.00 0.76 0.42 91 1005.0
20260509171539 55 172 4.0 9.0 0.00 0.76 0.42 93 1005.0
20260509171009 54 170 4.0 9.0 0.01 0.76 0.42 93 1005.1
20260509170510 54 166 3.0 9.0 0.01 0.76 0.42 94 1005.1
20260509165939 54 191 4.0 9.0 0.01 0.76 0.42 94 1005.2
20260509165410 54 197 3.0 9.0 0.01 0.76 0.42 93 1005.2
20260509164911 54 185 2.0 8.0 0.01 0.76 0.42 94 1005.1
20260509164409 53 178 2.0 8.0 0.01 0.76 0.42 94 1005.2
20260509163310 53 170 2.0 7.0 0.01 0.76 0.42 94 1005.1
20260509162810 53 164 1.0 5.0 0.01 0.76 0.42 95 1005.1
20260509162310 53 158 1.0 4.0 0.01 0.76 0.42 95 1004.9
20260509161741 52 150 1.0 4.0 0.01 0.76 0.42 95 1005.1
20260509161242 52 167 1.0 4.0 0.02 0.76 0.42 94 1005.0
20260509161209 52 167 1.0 4.0 0.02 0.76 0.42 94 1005.0
20260509160639 51 179 1.0 5.0 0.01 0.75 0.41 95 1004.9
20260509160139 51 164 2.0 5.0 0.01 0.75 0.41 94 1005.0
20260509155609 51 175 1.0 4.0 0.01 0.75 0.41 94 1004.9
20260509155110 51 177 2.0 6.0 0.01 0.75 0.41 94 1004.9
20260509154610 51 171 1.0 6.0 0.01 0.75 0.41 94 1004.9
20260509154039 51 156 0.0 2.0 0.01 0.75 0.41 95 1004.9
20260509153541 51 155 1.0 3.0 0.01 0.75 0.41 94 1004.9
20260509153039 51 172 1.0 3.0 0.01 0.75 0.41 94 1004.7
20260509152509 51 174 1.0 3.0 0.01 0.75 0.41 94 1004.8
20260509151439 50 168 1.0 4.0 0.01 0.75 0.41 94 1004.8
20260509151007 50 161 1.0 3.0 0.00 0.74 0.40 94 1004.7
20260509150912 50 161 1.0 3.0 0.00 0.74 0.40 94 1004.7
20260509150910 50 161 1.0 3.0 0.00 0.74 0.40 94 1004.7
20260509150410 50 153 1.0 3.0 0.00 0.74 0.40 94 1004.9
20260509145909 50 149 0.0 2.0 0.01 0.74 0.40 94 1004.9
20260509145412 50 145 1.0 3.0 0.01 0.74 0.40 94 1004.9
20260509145409 50 145 1.0 3.0 0.01 0.74 0.40 94 1004.9
20260509144839 50 149 1.0 3.0 0.01 0.74 0.40 94 1004.8
20260509144310 50 172 1.0 4.0 0.01 0.74 0.40 94 1004.8
20260509143812 50 172 1.0 4.0 0.01 0.74 0.40 94 1004.8
20260509143809 50 172 1.0 4.0 0.01 0.74 0.40 94 1004.8
20260509143239 50 169 2.0 5.0 0.01 0.74 0.40 94 1004.9
20260509142712 50 168 2.0 5.0 0.01 0.74 0.40 94 1004.8
20260509142709 50 168 2.0 5.0 0.01 0.74 0.40 94 1004.8
20260509142140 50 153 2.0 5.0 0.02 0.74 0.40 94 1004.7
20260509141609 49 153 1.0 3.0 0.02 0.74 0.40 94 1004.7
20260509141109 49 139 2.0 4.0 0.02 0.74 0.40 94 1004.8
20260509140539 49 146 2.0 5.0 0.02 0.74 0.40 94 1004.8
20260509140009 49 160 1.0 5.0 0.01 0.73 0.39 94 1004.9
20260509135439 49 157 1.0 3.0 0.01 0.73 0.39 94 1005.0
20260509134910 49 152 1.0 3.0 0.01 0.73 0.39 94 1005.0
20260509134339 49 175 1.0 3.0 0.01 0.73 0.39 94 1005.0
20260509133920 49 179 1.0 3.0 0.01 0.73 0.39 94 1005.1
20260509133843 49 179 1.0 3.0 0.01 0.73 0.39 94 1005.1
20260509133841 49 179 1.0 3.0 0.01 0.73 0.39 94 1005.1
20260509133310 49 162 1.0 4.0 0.01 0.73 0.39 94 1005.0
20260509132810 48 158 2.0 6.0 0.01 0.73 0.39 94 1005.0
20260509132504 48 170 2.0 6.0 0.00 0.72 0.38 94 1005.0
20260509132243 48 170 2.0 6.0 0.00 0.72 0.38 94 1005.0
20260509132240 48 170 2.0 6.0 0.00 0.72 0.38 94 1005.0
20260509131711 48 174 2.0 6.0 0.00 0.72 0.38 94 1005.0
20260509130709 48 171 2.0 4.0 0.00 0.72 0.38 94 1004.9
20260509130139 48 167 2.0 5.0 0.01 0.72 0.38 94 1004.9
20260509125643 48 158 1.0 5.0 0.01 0.72 0.38 94 1004.9
20260509125140 48 180 0.0 2.0 0.02 0.72 0.38 94 1005.1
20260509124643 48 158 1.0 3.0 0.02 0.72 0.38 94 1005.1
20260509124109 48 156 1.0 4.0 0.02 0.72 0.38 94 1005.1
20260509123009 48 161 1.0 3.0 0.02 0.72 0.38 94 1005.2
20260509122440 48 165 1.0 5.0 0.02 0.72 0.38 94 1005.2
20260509121939 48 177 1.0 5.0 0.02 0.72 0.38 94 1005.3
20260509121410 48 153 1.0 3.0 0.02 0.72 0.38 94 1005.3
20260509121014 48 159 1.0 7.0 0.02 0.72 0.38 94 1005.3
20260509120840 48 159 1.0 7.0 0.02 0.72 0.38 94 1005.3
20260509120339 48 154 2.0 7.0 0.01 0.71 0.37 94 1005.3
20260509115810 48 154 2.0 8.0 0.01 0.71 0.37 94 1005.2
20260509115309 48 167 1.0 8.0 0.01 0.70 0.36 94 1005.3
20260509114739 48 139 1.0 5.0 0.01 0.70 0.36 94 1005.2
20260509114507 48 145 1.0 5.0 0.01 0.70 0.36 94 1005.2
20260509114209 48 145 1.0 5.0 0.01 0.70 0.36 94 1005.2
20260509113930 48 160 1.0 3.0 0.01 0.70 0.36 94 1005.1
20260509113709 48 160 1.0 3.0 0.01 0.70 0.36 94 1005.1
20260509113139 48 161 1.0 1.0 0.01 0.70 0.36 94 1005.1
20260509112609 48 158 1.0 3.0 0.01 0.70 0.36 94 1005.1
20260509112039 48 159 1.0 4.0 0.01 0.70 0.36 94 1005.1
20260509111509 48 174 1.0 4.0 0.02 0.70 0.36 94 1005.1
20260509111009 48 173 1.0 3.0 0.03 0.70 0.36 94 1005.2
20260509110439 48 158 1.0 3.0 0.04 0.70 0.36 94 1005.2
20260509105909 48 179 1.0 4.0 0.04 0.70 0.36 94 1005.2
20260509105513 47 171 1.0 4.0 0.04 0.69 0.35 94 1005.1
20260509105339 47 171 1.0 4.0 0.04 0.69 0.35 94 1005.1
20260509104839 47 150 1.0 3.0 0.05 0.69 0.35 94 1005.2
20260509103809 47 202 1.0 2.0 0.06 0.69 0.35 94 1005.2
20260509103011 47 185 1.0 4.0 0.07 0.69 0.35 94 1005.2
20260509102739 47 185 1.0 4.0 0.07 0.69 0.35 94 1005.2
20260509102506 47 188 1.0 4.0 0.08 0.69 0.35 94 1005.2
20260509102210 47 188 1.0 4.0 0.08 0.69 0.35 94 1005.2
20260509101640 47 160 1.0 3.0 0.07 0.68 0.34 94 1005.2
20260509101139 47 159 1.0 3.0 0.06 0.67 0.33 94 1005.1
20260509100609 47 155 1.0 4.0 0.06 0.66 0.32 94 1005.2
20260509100039 47 148 1.0 4.0 0.07 0.66 0.32 94 1005.1
20260509095510 47 156 1.0 6.0 0.06 0.65 0.31 94 1005.1
20260509095009 47 153 2.0 6.0 0.07 0.65 0.31 94 1005.2
20260509094439 47 147 2.0 7.0 0.07 0.64 0.30 94 1005.2
20260509093909 47 150 2.0 4.0 0.07 0.63 0.29 94 1005.2
20260509093339 47 156 2.0 4.0 0.09 0.63 0.29 94 1005.4
20260509092839 47 159 2.0 5.0 0.09 0.62 0.28 94 1005.5
20260509092509 47 166 1.0 5.0 0.10 0.62 0.28 94 1005.5
20260509092339 47 166 1.0 5.0 0.10 0.62 0.28 94 1005.5
20260509091839 47 165 1.0 5.0 0.10 0.61 0.27 94 1005.5
20260509091311 47 158 2.0 5.0 0.11 0.61 0.27 94 1005.5
20260509091015 47 160 2.0 6.0 0.11 0.60 0.26 94 1005.5
20260509090739 47 160 2.0 6.0 0.11 0.60 0.26 94 1005.5
20260509090508 47 177 2.0 6.0 0.11 0.60 0.26 94 1005.5
20260509090239 47 177 2.0 6.0 0.11 0.60 0.26 94 1005.5
20260509085739 47 187 2.0 6.0 0.10 0.59 0.25 94 1005.5
20260509085209 47 160 2.0 6.0 0.10 0.58 0.24 94 1005.6
20260509084709 47 148 2.0 6.0 0.10 0.58 0.24 94 1005.6
20260509084209 47 148 2.0 6.0 0.10 0.57 0.23 94 1005.7
20260509083709 47 158 2.0 6.0 0.08 0.55 0.21 94 1005.8
20260509083139 47 167 3.0 6.0 0.08 0.54 0.20 94 1005.7
20260509082609 47 161 2.0 5.0 0.06 0.53 0.18 94 1005.6
20260509082109 47 152 2.0 5.0 0.05 0.52 0.17 94 1005.7
20260509081609 47 156 2.0 5.0 0.05 0.51 0.16 94 1005.8
20260509081041 47 148 2.0 5.0 0.04 0.50 0.15 94 1005.7
20260509080539 47 143 2.0 5.0 0.04 0.50 0.15 94 1005.7
20260509080012 47 142 2.0 5.0 0.04 0.50 0.15 94 1005.7
20260509075509 47 150 1.0 3.0 0.04 0.49 0.14 94 1005.6
20260509075041 47 156 1.0 3.0 0.04 0.49 0.14 94 1005.7
20260509075009 47 156 1.0 3.0 0.04 0.49 0.14 94 1005.7
20260509074439 47 158 1.0 2.0 0.03 0.48 0.13 94 1005.8
20260509073909 47 157 1.0 2.0 0.03 0.48 0.13 94 1005.8
20260509073409 47 150 0.0 2.0 0.04 0.48 0.13 94 1005.8
20260509072839 47 150 1.0 4.0 0.03 0.47 0.12 94 1005.7
20260509072339 47 153 1.0 4.0 0.04 0.47 0.12 94 1005.8
20260509071809 47 177 0.0 2.0 0.04 0.47 0.12 94 1005.8
20260509071240 47 159 0.0 2.0 0.03 0.46 0.11 94 1005.9
20260509070709 47 156 0.0 2.0 0.04 0.46 0.11 94 1005.8
20260509070139 47 191 0.0 1.0 0.04 0.46 0.11 94 1006.0
20260509065609 47 207 0.0 1.0 0.03 0.45 0.10 94 1006.0
20260509065109 47 213 0.0 1.0 0.03 0.45 0.10 94 1006.1
20260509064539 47 349 0.0 1.0 0.03 0.45 0.10 93 1006.0
20260509064009 47 350 0.0 2.0 0.03 0.45 0.10 93 1006.1
20260509063439 47 346 0.0 2.0 0.03 0.44 0.09 93 1006.3
20260509062939 47 162 0.0 2.0 0.04 0.44 0.09 93 1006.3
20260509062409 47 169 1.0 2.0 0.03 0.43 0.08 93 1006.5
20260509061839 47 165 0.0 3.0 0.04 0.43 0.08 93 1006.6
20260509061339 47 157 0.0 3.0 0.04 0.43 0.08 93 1006.6
20260509060809 47 151 0.0 2.0 0.04 0.43 0.08 93 1006.7
20260509055739 47 0 0.0 0.0 0.04 0.42 0.07 93 1006.7
20260509055239 47 0 0.0 0.0 0.05 0.42 0.07 93 1006.7
20260509054739 47 273 0.0 1.0 0.06 0.42 0.07 93 1006.9
20260509054209 47 189 0.0 1.0 0.06 0.42 0.07 93 1006.9
20260509053709 47 164 0.0 1.0 0.05 0.41 0.06 93 1006.9
20260509053139 47 82 0.0 1.0 0.05 0.41 0.06 93 1007.2
20260509052639 47 15 0.0 1.0 0.05 0.40 0.05 93 1007.3
20260509052139 47 141 1.0 3.0 0.05 0.40 0.05 93 1007.3
20260509051609 47 154 1.0 3.0 0.04 0.39 0.04 93 1007.4
20260509051109 47 162 1.0 4.0 0.04 0.39 0.04 93 1007.5
20260509050539 47 168 1.0 6.0 0.03 0.38 0.03 93 1007.6
20260509050009 47 166 1.0 6.0 0.03 0.38 0.03 93 1007.7
20260509045512 47 150 1.0 4.0 0.02 0.37 0.02 93 1007.6
20260509045439 47 150 1.0 4.0 0.02 0.37 0.02 93 1007.6
20260509044939 47 155 1.0 4.0 0.03 0.37 0.02 93 1007.7
20260509044409 47 173 2.0 7.0 0.02 0.36 0.01 93 1007.7
20260509043909 47 177 2.0 7.0 0.02 0.36 0.01 93 1007.7
20260509043510 47 157 2.0 5.0 0.03 0.36 0.01 93 1007.6
20260509043339 47 157 2.0 5.0 0.03 0.36 0.01 93 1007.6
20260509042839 47 152 2.0 5.0 0.03 0.36 0.01 93 1007.7
20260509042015 47 160 2.0 5.0 0.03 0.35 0.00 93 1008.0
20260509041809 47 160 2.0 5.0 0.03 0.35 0.00 93 1008.0
20260509041508 47 163 1.0 5.0 0.04 0.35 0.00 93 1008.0
20260509041239 47 163 1.0 5.0 0.04 0.35 0.00 93 1008.0
20260509040507 47 166 1.0 4.0 0.05 0.35 0.00 93 1008.1
20260509040209 47 166 1.0 4.0 0.05 0.35 0.00 93 1008.1
20260509035504 47 146 1.0 4.0 0.06 0.34 0.34 93 1008.1
20260509035139 47 146 1.0 4.0 0.06 0.34 0.34 93 1008.1
20260509034609 47 148 1.0 4.0 0.06 0.34 0.34 93 1008.0
20260509034039 47 153 1.0 2.0 0.07 0.34 0.34 93 1008.1
20260509033509 47 159 0.0 3.0 0.06 0.33 0.33 93 1008.2
20260509033009 47 157 1.0 3.0 0.07 0.33 0.33 93 1008.3
20260509032439 47 146 1.0 4.0 0.07 0.32 0.32 93 1008.3
20260509031909 47 156 1.0 4.0 0.07 0.32 0.32 92 1008.3
20260509031339 47 151 1.0 4.0 0.07 0.31 0.31 92 1008.3
20260509030839 47 157 1.0 4.0 0.07 0.31 0.31 92 1008.5
20260509030014 47 154 1.0 3.0 0.06 0.29 0.29 92 1008.5
20260509025809 47 154 1.0 3.0 0.06 0.29 0.29 92 1008.5
20260509025504 47 157 1.0 3.0 0.06 0.29 0.29 92 1008.6
20260509025239 47 157 1.0 3.0 0.06 0.29 0.29 92 1008.6
20260509024739 47 145 0.0 3.0 0.06 0.28 0.28 92 1008.6
20260509024209 47 136 1.0 2.0 0.05 0.27 0.27 92 1008.7
20260509023709 47 138 1.0 3.0 0.06 0.27 0.27 92 1008.7
20260509023139 47 147 1.0 3.0 0.06 0.26 0.26 92 1008.8
20260509022609 47 161 1.0 3.0 0.06 0.26 0.26 92 1009.0
20260509022109 47 161 1.0 2.0 0.06 0.25 0.25 92 1008.9
20260509021539 47 166 0.0 2.0 0.05 0.24 0.24 92 1008.9
20260509021039 47 141 0.0 3.0 0.05 0.24 0.24 92 1008.8
20260509020539 47 148 0.0 3.0 0.05 0.23 0.23 92 1008.7
20260509020039 47 190 0.0 1.0 0.05 0.23 0.23 92 1008.7
20260509015539 47 0 0.0 0.0 0.05 0.23 0.23 92 1008.6
20260509015009 47 139 0.0 1.0 0.05 0.22 0.22 92 1008.4
20260509014439 47 139 0.0 1.0 0.05 0.22 0.22 91 1008.5
20260509013909 47 0 0.0 0.0 0.05 0.22 0.22 91 1008.5
20260509013503 47 0 0.0 0.0 0.05 0.21 0.21 91 1008.4
20260509013409 47 0 0.0 0.0 0.05 0.21 0.21 91 1008.4
20260509012839 47 140 0.0 1.0 0.05 0.20 0.20 91 1008.4
20260509012309 47 140 0.0 1.0 0.04 0.19 0.19 91 1008.3
20260509012013 47 139 0.0 1.0 0.05 0.19 0.19 91 1008.2
20260509011739 47 139 0.0 1.0 0.05 0.19 0.19 91 1008.2
20260509011209 47 0 0.0 0.0 0.06 0.19 0.19 91 1008.2
20260509010709 47 0 0.0 0.0 0.06 0.18 0.18 90 1008.0
20260509010505 47 0 0.0 0.0 0.07 0.18 0.18 90 1008.0
20260509010139 47 0 0.0 0.0 0.07 0.18 0.18 90 1008.0
20260509005609 47 0 0.0 0.0 0.08 0.18 0.18 90 1008.0
20260509005109 47 0 0.0 0.0 0.09 0.18 0.18 90 1008.0
20260509004540 48 0 0.0 0.0 0.09 0.17 0.17 89 1008.0
20260509004039 48 127 0.0 1.0 0.10 0.17 0.17 89 1007.9
20260509003539 48 127 0.0 1.0 0.09 0.16 0.16 88 1007.8
20260509003009 48 123 0.0 1.0 0.10 0.16 0.16 88 1007.9
20260509002439 48 149 1.0 3.0 0.09 0.15 0.15 87 1008.0
20260509001939 48 156 1.0 3.0 0.08 0.14 0.14 87 1008.2
20260509001409 49 148 0.0 3.0 0.07 0.13 0.13 87 1008.2
20260509000429 49 105 0.0 1.0 0.05 0.11 0.11 84 1008.1
20260509000340 49 105 0.0 1.0 0.05 0.11 0.11 84 1008.1
20260508235839 50 103 0.0 3.0 0.05 0.11 0.11 83 1008.0
20260508235339 50 109 0.0 3.0 0.04 0.10 0.10 82 1007.8
20260508234809 51 136 0.0 3.0 0.03 0.09 0.09 81 1007.9
20260508234238 51 154 1.0 3.0 0.02 0.08 0.08 79 1007.7
20260508233739 52 152 1.0 5.0 0.01 0.07 0.07 78 1007.6
20260508233209 52 150 2.0 5.0 0.00 0.06 0.06 76 1007.6
20260508232640 52 154 2.0 5.0 0.00 0.06 0.06 76 1007.6
20260508231639 52 161 1.0 4.0 0.00 0.06 0.06 75 1007.5
20260508231109 53 180 1.0 8.0 0.00 0.06 0.06 75 1007.4
20260508230609 53 178 3.0 11.0 0.00 0.06 0.06 75 1007.3
20260508230039 53 181 3.0 8.0 0.00 0.06 0.06 75 1007.4
20260508225539 53 177 4.0 8.0 0.00 0.06 0.06 75 1007.5
20260508225039 53 162 4.0 8.0 0.00 0.06 0.06 75 1007.5
20260508224509 53 150 2.0 7.0 0.00 0.06 0.06 75 1007.4
20260508223939 53 148 2.0 8.0 0.00 0.06 0.06 75 1007.5
20260508223408 53 154 3.0 8.0 0.00 0.06 0.06 75 1007.4
20260508222339 53 170 4.0 11.0 0.00 0.06 0.06 75 1007.4
20260508221838 53 168 4.0 12.0 0.00 0.06 0.06 75 1007.4
20260508221309 53 167 3.0 12.0 0.00 0.06 0.06 76 1007.2
20260508221035 53 168 2.0 8.0 0.00 0.06 0.06 77 1007.4
20260508220739 53 168 2.0 8.0 0.00 0.06 0.06 77 1007.4
20260508220238 53 178 2.0 10.0 0.00 0.06 0.06 78 1007.4
20260508215739 53 174 4.0 13.0 0.00 0.06 0.06 78 1007.4
20260508215209 53 167 5.0 13.0 0.01 0.06 0.06 77 1007.3
20260508214744 53 165 4.0 10.0 0.01 0.06 0.06 78 1007.3
20260508214709 53 165 4.0 10.0 0.01 0.06 0.06 78 1007.3
20260508214209 53 159 3.0 8.0 0.01 0.06 0.06 80 1007.4
20260508213709 53 161 3.0 11.0 0.01 0.06 0.06 79 1007.2
20260508213139 53 166 3.0 11.0 0.01 0.06 0.06 80 1007.3
20260508212108 52 157 2.0 10.0 0.01 0.06 0.06 82 1007.2
20260508211539 52 107 0.0 3.0 0.01 0.06 0.06 85 1007.4
20260508211009 53 46 0.0 1.0 0.01 0.06 0.06 85 1007.3
20260508210439 53 158 1.0 4.0 0.01 0.06 0.06 84 1007.3
20260508205940 53 171 1.0 5.0 0.01 0.06 0.06 82 1007.1
20260508205439 53 180 2.0 5.0 0.00 0.05 0.05 81 1007.3
20260508204339 54 173 2.0 8.0 0.04 0.05 0.05 81 1007.2
20260508203839 54 170 3.0 9.0 0.04 0.05 0.05 81 1007.3
20260508203338 54 181 4.0 11.0 0.04 0.05 0.05 81 1007.3
20260508202838 54 183 5.0 12.0 0.04 0.05 0.05 81 1007.2
20260508202309 54 177 5.0 12.0 0.04 0.05 0.05 83 1007.4